Stations météo

réclame
Mon MeteoGroup
Brest, France (7110): Température de l'air & dewpoint: 12.09.2019 12:00:00 - 18.09.2019 12:00:00 (CEST)Brest, France (7110): Température de l'air 5cm: 12.09.2019 12:00:00 - 18.09.2019 12:00:00 (CEST)Brest, France (7110): Température de l'air -20cm & Température de l'air -100cm: 12.09.2019 12:00:00 - 18.09.2019 12:00:00 (CEST)Brest, France (7110): Vitesse du vent & gusts: 12.09.2019 12:00:00 - 18.09.2019 12:00:00 (CEST)Brest, France (7110): Direction du vent: 12.09.2019 12:00:00 - 18.09.2019 12:00:00 (CEST)Brest, France (7110): reduced air pressure: 12.09.2019 12:00:00 - 18.09.2019 12:00:00 (CEST)Brest, France (7110): visibility: 12.09.2019 12:00:00 - 18.09.2019 12:00:00 (CEST)Brest, France (7110): Ensoleillement: 12.09.2019 12:00:00 - 18.09.2019 12:00:00 (CEST)Brest, France (7110): Quantités de précipitations: 12.09.2019 12:00:00 - 18.09.2019 12:00:00 (CEST)
Date & Time tt [°C] td [°C] tt 5cm [°C] tt -20cm [°C] tt -100cm [°C] ff [km/h] ff [knt] fx [km/h] fx [knt] dd ppp [hPa] vv [km] sd [min] rr [mm]
18.09.2019 12:00:00 - - - - - - - - - - - - - -
18.09.2019 11:00:00 15,3 9,6 12,8 16,5 16,1 35 19 51 28 ENE 1026,3 10 60 0,0
18.09.2019 10:00:00 14,1 9,9 10,8 16,6 16,0 26 14 44 24 ENE 1026,2 15 60 0,0
18.09.2019 09:00:00 12,7 10,4 9,4 16,6 16,1 20 11 32 18 NE 1025,8 19 32 0,0
18.09.2019 08:00:00 11,7 9,9 9,5 16,7 16,1 18 10 31 17 NE 1025,1 32 0 0,0
18.09.2019 07:00:00 12,0 10,4 9,8 16,8 16,1 19 10 32 18 NE 1024,7 34 0 0,0
18.09.2019 06:00:00 12,1 10,7 9,9 16,8 16,1 18 10 28 15 NE 1024,4 32 0 0,0
18.09.2019 05:00:00 12,2 10,8 9,9 16,9 16,1 17 9 27 14 ENE 1024,6 27 0 0,0
18.09.2019 04:00:00 12,3 11,0 9,7 16,9 16,1 17 9 24 13 NE 1024,5 17 0 0,0
18.09.2019 03:00:00 11,7 10,8 9,1 17,0 16,1 13 7 22 12 NE 1024,4 13 0 0,0
18.09.2019 02:00:00 11,4 10,5 9,1 17,1 16,1 16 9 26 14 NE 1024,5 19 0 0,0
18.09.2019 01:00:00 11,5 10,4 8,6 17,1 16,1 15 8 22 12 NNE 1024,6 20 0 0,0
18.09.2019 00:00:00 11,8 10,5 9,0 17,3 16,1 13 7 22 12 NE 1024,6 20 0 0,0
17.09.2019 23:00:00 12,6 10,8 10,4 17,2 16,0 16 9 27 14 NNE 1024,4 37 0 0,0
17.09.2019 22:00:00 13,2 11,1 11,3 17,2 16,0 18 10 29 16 NE 1024,1 38 0 0,0
17.09.2019 21:00:00 14,1 12,1 12,4 17,0 16,1 16 8 37 20 NE 1023,8 20 9 0,0
17.09.2019 20:00:00 15,8 12,7 14,5 17,1 16,1 23 12 39 21 NE 1023,2 32 60 0,0
17.09.2019 19:00:00 17,7 14,0 18,2 17,2 16,0 26 14 39 21 NE 1023,1 20 58 0,0
17.09.2019 18:00:00 19,0 14,9 23,8 17,1 16,0 24 13 43 23 NE 1023,1 13 60 0,0
17.09.2019 17:00:00 19,5 15,6 24,4 17,0 16,1 27 15 45 24 NE 1023,0 13 33 0,0
17.09.2019 16:00:00 19,7 15,8 24,5 16,9 16,1 29 16 42 23 NE 1023,0 9 37 0,0
17.09.2019 15:00:00 19,8 16,2 22,1 16,9 16,0 22 12 36 20 NE 1023,0 19 3 0,0
17.09.2019 14:00:00 18,9 15,9 21,6 16,8 16,0 18 10 31 17 NE 1023,3 23 0 0,0
17.09.2019 13:00:00 18,8 16,0 22,4 16,7 16,0 17 9 32 18 NNE 1023,5 35 3 0,0
17.09.2019 12:00:00 18,8 15,7 21,0 16,8 16,0 19 10 28 15 NE 1023,6 39 9 0,0
17.09.2019 11:00:00 17,8 16,8 17,5 16,9 16,1 14 8 25 14 NE 1023,5 10 0 0,0
17.09.2019 10:00:00 16,3 16,0 16,5 16,8 16,0 14 7 22 12 NE 1023,5 7 0 0,0
17.09.2019 09:00:00 15,9 15,7 15,6 16,8 16,0 11 6 21 11 NNE 1023,2 1,7 0 0,0
17.09.2019 08:00:00 15,6 15,4 15,5 16,9 16,0 12 6 22 12 NNE 1022,8 1,8 0 0,0
17.09.2019 07:00:00 15,5 15,2 15,3 16,9 16,1 10 6 21 11 N 1022,7 6 0 0,0
17.09.2019 06:00:00 15,4 14,9 15,3 16,9 16,0 8 4 14 8 N 1022,8 10 0 0,0
17.09.2019 05:00:00 15,4 14,8 15,1 16,9 16,1 5 3 16 8 NNE 1022,8 6 0 0,0
17.09.2019 04:00:00 15,3 14,5 14,9 17,0 16,0 8 4 27 14 NNE 1022,9 20 0 0,0
17.09.2019 03:00:00 15,1 14,3 14,9 17,0 16,3 15 8 27 14 NE 1023,1 12 0 0,0
17.09.2019 02:00:00 15,0 14,4 14,9 16,9 16,0 14 8 29 16 NNE 1023,5 12 0 0,0
17.09.2019 01:00:00 15,1 14,5 14,7 17,0 16,0 11 6 23 13 NNE 1023,9 9 0 0,0
17.09.2019 00:00:00 14,8 13,8 14,4 16,9 16,0 12 6 27 14 NNE 1024,1 19 0 0,0
16.09.2019 23:00:00 14,6 13,8 14,3 17,0 16,0 14 8 27 15 NNE 1024,0 20 0 0,0
16.09.2019 22:00:00 14,3 14,0 14,3 17,0 16,0 13 7 29 16 N 1024,0 3,1 0 0,0
16.09.2019 21:00:00 14,3 14,1 14,5 17,0 16,0 14 7 27 15 NNE 1023,8 3,7 0 0,0
16.09.2019 20:00:00 14,7 14,2 15,2 16,9 16,0 15 8 30 16 N 1023,5 4,2 0 0,0
16.09.2019 19:00:00 15,1 14,0 16,7 16,9 16,0 17 9 31 17 N 1023,7 26 0 0,0
16.09.2019 18:00:00 15,4 14,1 18,1 16,8 16,0 17 9 30 16 NNE 1023,6 17 0 0,0
16.09.2019 17:00:00 16,1 14,5 20,0 16,7 15,9 16 9 28 15 N 1023,9 20 1 0,0
16.09.2019 16:00:00 16,3 13,6 22,1 16,7 16,0 16 9 29 16 N 1023,9 20 1 0,0
16.09.2019 15:00:00 16,6 13,7 23,0 16,7 16,1 16 8 26 14 NNE 1024,2 30 4 0,0
16.09.2019 14:00:00 16,8 14,6 - 16,7 16,0 16 8 - - NNE 1024,3 20 - -
16.09.2019 13:00:00 15,6 14,5 19,6 16,7 15,9 12 7 25 14 NE 1024,6 19 0 0,0
16.09.2019 12:00:00 14,6 14,1 16,7 16,6 16,0 14 7 24 13 N 1024,8 3,8 0 0,0
16.09.2019 11:00:00 14,1 13,8 15,5 16,8 16,0 16 9 29 16 N 1024,7 4,5 0 0,0
16.09.2019 10:00:00 14,1 13,8 14,7 16,7 16,0 15 8 27 15 NNE 1024,4 1,0 0 0,2
16.09.2019 09:00:00 13,9 13,6 13,8 16,8 16,0 11 6 27 15 NNE 1024,2 0,5 0 0,0
16.09.2019 08:00:00 13,9 13,4 13,0 16,8 16,0 15 8 30 16 N 1023,8 1,0 0 0,0
16.09.2019 07:00:00 13,4 12,1 11,7 16,9 16,0 11 6 24 13 NNE 1023,6 16 0 0,0
16.09.2019 06:00:00 13,5 12,1 12,6 16,9 16,0 14 7 26 14 NNE 1023,9 25 0 0,0
16.09.2019 05:00:00 13,2 11,9 10,9 17,0 15,9 14 7 26 14 NNE 1024,2 12 0 0,0
16.09.2019 04:00:00 12,6 11,3 11,0 17,0 16,0 12 7 26 14 NNE 1024,1 11 0 0,0
16.09.2019 03:00:00 12,9 11,6 11,9 17,1 15,9 14 8 26 14 NNE 1024,7 10 0 0,0
16.09.2019 02:00:00 13,3 12,2 12,5 17,0 15,9 15 8 28 15 NNE 1024,8 12 0 0,0
16.09.2019 01:00:00 13,0 12,2 13,0 17,1 16,0 15 8 25 13 NNE 1025,1 9 0 0,0
16.09.2019 00:00:00 13,3 12,5 12,5 17,2 16,0 13 7 31 17 NNE 1025,2 8 0 0,0
15.09.2019 23:00:00 13,5 12,6 12,8 17,0 15,9 17 9 29 16 NNE 1025,3 11 0 0,0
15.09.2019 22:00:00 13,6 12,8 10,3 17,1 16,0 15 8 27 15 NNE 1025,0 9 0 0,0
15.09.2019 21:00:00 13,9 12,6 12,6 17,1 16,0 13 7 26 14 NNE 1024,8 15 0 0,0
15.09.2019 20:00:00 14,8 12,8 13,8 16,8 16,1 14 8 30 16 NNE 1024,9 16 56 0,0
15.09.2019 19:00:00 15,9 13,0 17,6 16,9 15,9 18 10 38 20 NNE 1024,9 19 58 0,0
15.09.2019 18:00:00 18,3 14,2 24,0 16,9 16,0 19 11 32 18 N 1024,6 16 60 0,0
15.09.2019 17:00:00 19,3 14,5 27,0 16,8 16,0 18 10 33 18 N 1024,6 10 60 0,0
15.09.2019 16:00:00 20,7 14,6 30,0 16,7 16,0 18 10 32 18 NNE 1025,1 19 60 0,0
15.09.2019 15:00:00 20,3 14,9 28,7 16,7 16,0 18 10 32 18 NNE 1025,6 22 60 0,0
15.09.2019 14:00:00 20,1 14,2 26,7 16,6 15,9 23 12 35 19 NE 1026,2 18 60 0,0
15.09.2019 13:00:00 19,8 14,8 23,6 16,6 15,9 20 11 32 17 NNE 1026,6 18 60 0,0
15.09.2019 12:00:00 19,0 13,6 19,4 16,7 16,0 19 10 31 17 NE 1026,6 14 60 0,0
15.09.2019 11:00:00 17,8 14,3 17,6 16,8 16,0 21 11 32 17 NE 1026,7 8 54 0,0
15.09.2019 10:00:00 15,7 14,7 15,1 16,8 16,0 17 9 29 16 NE 1026,6 6 6 0,0
15.09.2019 09:00:00 14,9 14,6 14,0 16,8 15,9 19 10 31 17 NE 1026,4 7 1 0,0
15.09.2019 08:00:00 14,8 14,5 13,8 16,9 15,9 14 8 26 14 NNE 1026,7 7 0 0,0
15.09.2019 07:00:00 14,4 14,1 13,8 16,9 15,9 15 8 26 14 NNE 1026,4 3,5 0 0,0
15.09.2019 06:00:00 14,5 14,2 14,1 16,9 16,0 14 8 24 13 NNE 1026,4 2,3 0 0,0
15.09.2019 05:00:00 14,6 14,3 14,2 16,9 15,9 14 8 25 13 NE 1026,7 1,9 0 0,2
15.09.2019 04:00:00 14,8 14,5 14,6 16,8 15,9 14 8 26 14 NE 1026,9 2,8 0 0,0
15.09.2019 03:00:00 15,1 14,8 14,7 16,8 15,9 13 7 24 13 NNE 1027,4 2,5 0 0,0
15.09.2019 02:00:00 15,1 14,8 14,7 16,9 15,9 13 7 21 11 NE 1027,3 1,3 0 0,0
15.09.2019 01:00:00 15,2 14,9 15,0 16,9 15,9 13 7 23 12 NE 1027,7 0,4 0 0,0
15.09.2019 00:00:00 15,4 15,1 15,3 16,9 15,9 14 8 23 12 NE 1028,2 0,3 0 0,0
14.09.2019 23:00:00 15,5 15,2 13,6 16,9 15,9 12 6 24 13 NNE 1028,4 0,3 0 0,0
14.09.2019 22:00:00 15,5 14,5 13,2 16,9 15,9 14 7 22 12 NNE 1028,2 9 0 0,0
14.09.2019 21:00:00 16,5 14,7 14,3 16,8 15,9 13 7 21 12 NNE 1027,8 13 13 0,0
14.09.2019 20:00:00 18,2 15,3 17,0 16,8 15,9 16 8 27 15 NNE 1027,8 17 60 0,0
14.09.2019 19:00:00 19,9 15,7 20,7 16,8 15,9 16 9 27 15 NNE 1027,6 20 60 0,0
14.09.2019 18:00:00 21,0 16,4 26,0 16,7 15,9 18 10 28 15 NNE 1027,7 25 57 0,0
14.09.2019 17:00:00 22,2 17,1 27,4 16,6 15,9 14 8 30 16 NNE 1027,9 25 53 0,0
14.09.2019 16:00:00 22,2 16,9 29,8 16,6 16,0 14 8 26 14 NNE 1028,2 20 52 0,0
14.09.2019 15:00:00 22,0 16,0 27,4 16,5 15,9 16 9 29 16 NE 1028,9 24 60 0,0
14.09.2019 14:00:00 21,9 16,2 29,0 16,5 15,9 13 7 26 14 NE 1029,3 30 60 0,0
14.09.2019 13:00:00 21,5 16,5 23,6 16,5 15,9 16 9 24 13 NE 1029,9 13 58 0,0
14.09.2019 12:00:00 20,0 15,8 21,5 16,5 15,9 13 7 25 13 E 1030,5 15 38 0,0
14.09.2019 11:00:00 18,7 15,9 18,6 16,4 15,9 14 7 28 15 E 1030,5 16 11 0,0
14.09.2019 10:00:00 17,9 15,5 15,6 16,5 15,9 17 9 25 14 E 1030,6 10 42 0,0
14.09.2019 09:00:00 16,2 15,4 12,8 16,5 15,9 16 9 26 14 NE 1030,7 9 34 0,0
14.09.2019 08:00:00 15,3 14,5 12,7 16,6 16,0 12 7 23 12 NE 1030,8 6 0 0,0
14.09.2019 07:00:00 15,9 15,1 14,5 16,5 15,9 14 8 22 12 NE 1030,7 11 0 0,0
14.09.2019 06:00:00 16,0 15,2 15,1 16,6 15,9 13 7 20 11 NNE 1031,2 11 0 0,0
14.09.2019 05:00:00 16,0 15,0 13,2 16,6 15,9 14 8 27 15 NE 1031,2 16 0 0,0
14.09.2019 04:00:00 15,6 14,5 13,9 16,6 15,9 15 8 29 16 ENE 1031,0 17 0 0,0
14.09.2019 03:00:00 15,9 15,3 14,5 16,6 15,9 18 10 31 17 NE 1031,6 12 0 0,0
14.09.2019 02:00:00 16,0 15,2 14,7 16,6 15,9 15 8 30 16 NE 1032,0 11 0 0,0
14.09.2019 01:00:00 16,2 15,4 15,9 16,6 15,9 16 8 26 14 NE 1032,5 10 0 0,0
14.09.2019 00:00:00 16,2 15,2 15,8 16,6 15,9 13 7 27 15 NE 1033,0 13 0 0,0
13.09.2019 23:00:00 16,3 15,2 16,1 16,6 15,9 17 9 31 17 NE 1033,3 15 0 0,0
13.09.2019 22:00:00 16,6 15,5 16,3 16,6 15,9 14 8 26 14 NE 1033,0 20 0 0,0
13.09.2019 21:00:00 16,9 15,4 16,6 16,5 15,9 14 8 26 14 NE 1032,5 35 0 0,0
13.09.2019 20:00:00 17,3 15,3 17,4 16,5 15,9 14 8 25 13 NE 1032,3 38 0 0,0
13.09.2019 19:00:00 17,7 15,5 19,0 16,5 15,9 14 8 26 14 NNE 1032,2 41 0 0,0
13.09.2019 18:00:00 17,8 15,6 19,1 16,4 15,9 14 8 25 13 NNE 1032,5 43 0 0,0
13.09.2019 17:00:00 18,1 15,4 19,8 16,4 15,9 16 9 27 15 NE 1032,8 53 0 0,0
13.09.2019 16:00:00 18,2 15,6 18,6 16,3 15,9 16 8 22 12 NE 1033,2 45 0 0,0
13.09.2019 15:00:00 17,6 16,1 18,3 16,3 15,9 14 7 21 12 NE 1033,4 8 0 0,0
13.09.2019 14:00:00 17,8 15,8 19,6 16,3 15,9 10 5 18 10 N 1033,8 15 0 0,2
13.09.2019 13:00:00 17,5 15,7 19,6 16,3 15,9 12 6 18 10 ENE 1033,9 22 0 0,0
13.09.2019 12:00:00 17,5 16,4 19,5 16,3 15,9 6 3 12 6 NE 1033,9 45 0 0,2
13.09.2019 11:00:00 17,0 15,9 19,5 16,3 15,9 4 2 6 4 ENE 1033,9 2,4 0 0,0
13.09.2019 10:00:00 16,5 16,0 16,4 16,3 15,9 2 1 6 4 NE 1033,7 18 4 0,0
13.09.2019 09:00:00 15,6 15,1 14,2 16,3 15,9 2 1 8 5 NNE 1033,2 8 0 0,0
13.09.2019 08:00:00 15,2 14,7 14,3 16,3 15,9 5 3 8 4 S 1033,2 8 0 0,0
13.09.2019 07:00:00 15,2 14,7 14,4 16,3 15,9 5 3 7 4 S 1033,1 0,5 0 0,0
13.09.2019 06:00:00 14,9 14,4 13,3 16,4 15,9 3 2 7 4 SSW 1032,9 6 0 0,0
13.09.2019 05:00:00 14,6 14,1 9,8 16,4 15,9 4 2 8 5 SW 1033,0 0,6 0 0,0
13.09.2019 04:00:00 14,0 13,2 9,6 16,4 15,9 5 3 8 4 WSW 1032,8 0,4 0 0,0
13.09.2019 03:00:00 14,7 13,4 10,7 16,4 15,9 6 4 12 7 SW 1033,0 2,7 0 0,0
13.09.2019 02:00:00 16,0 14,9 15,0 16,4 15,9 8 4 14 7 SW 1033,0 35 0 0,0
13.09.2019 01:00:00 16,0 14,5 14,3 16,5 15,9 10 6 17 9 SW 1033,1 46 0 0,0
13.09.2019 00:00:00 15,6 14,1 13,4 16,4 15,9 8 4 18 10 SW 1033,3 58 0 0,0
12.09.2019 23:00:00 15,6 13,8 13,2 16,4 15,9 10 5 16 8 SW 1033,3 58 0 0,0
12.09.2019 22:00:00 16,1 14,1 14,3 16,4 15,9 12 6 21 11 SW 1033,2 59 0 0,0
12.09.2019 21:00:00 16,9 14,7 15,7 16,4 16,0 13 7 24 13 SW 1032,9 45 12 0,0
12.09.2019 20:00:00 18,3 14,6 17,8 16,3 15,9 17 9 24 13 SW 1032,3 51 7 0,0
12.09.2019 19:00:00 18,2 15,4 18,7 16,3 15,9 15 8 31 17 SW 1032,2 35 0 0,0
12.09.2019 18:00:00 18,5 15,7 18,8 16,2 15,9 20 11 33 18 SW 1032,3 31 0 0,0
12.09.2019 17:00:00 18,6 15,8 19,1 16,2 15,9 21 11 34 18 WSW 1032,5 30 0 0,0
12.09.2019 16:00:00 18,8 15,8 19,8 16,1 15,9 23 12 35 19 SW 1032,8 43 0 0,0
12.09.2019 15:00:00 19,0 15,3 20,2 16,1 15,9 23 13 35 19 SW 1032,7 52 18 0,0
12.09.2019 14:00:00 19,0 16,0 19,5 16,1 15,9 21 11 33 18 SW 1032,5 32 2 0,0
12.09.2019 13:00:00 18,0 16,0 18,1 16,0 15,9 14 8 29 16 SW 1032,4 28 5 0,0
12.09.2019 12:00:00 18,1 16,3 17,8 16,0 15,9 14 8 26 14 SW 1032,4 37 0 0,0

tt = Température de l'air
td = dewpoint
tt 5cm = Température de l'air 5cm
tt -20cm = Température de l'air -20cm
tt -100cm = Température de l'air -100cm
ff = Vitesse du vent
fx = gusts
dd = Direction du vent
ppp = reduced air pressure
vv = visibility
sd = Ensoleillement
rr = Quantités de précipitations

stations d'obs. à proximité